Miscellaneous Local Product
Issued by NWS North Platte, NE

Home | Current Version | Previous Version | Text Only | Print | Product List | Glossary On
Versions: 1 2 3 4 5 6 7 8 9 10 11 12 13 14 15 16 17 18 19 20 21 22 23 24 25 26 27 28 29 30 31 32 33 34 35 36 37 38 39 40 41 42 43 44 45 46 47 48 49 50
000
AXUS43 KLBF 231710
MISLBF


WESTERN AND NORTH CENTRAL NEBRASKA HOURLY WEATHER ROUNDUP
NATIONAL WEATHER SERVICE NORTH PLATTE NE
1100 AM CST THU NOV 23 2017

NOTE: "FAIR" INDICATES FEW OR NO CLOUDS BELOW 12,000 FEET WITH NO
SIGNIFICANT WEATHER AND/OR OBSTRUCTIONS TO VISIBILITY.

NOTE: STATIONS NOT REPORTING VARIABLES SUCH AS SKY/WEATHER OR
PRESSURE ARE PROVIDED BY RAWS AND APRS NETWORKS AND ARE NOT UNDER
NATIONAL WEATHER SERVICE QUALITY CONTROL.

...OBSERVATIONS IN AND NEAR THE EASTERN PANHANDLE OF NEBRASKA...

CITY           SKY/WX    TMP DP  RH WIND       PRES   REMARKS
PINE RIDGE     SUNNY     61  40  45 W9        29.99F
GORDON         FAIR      58  40  51 W14       29.99F
CHADRON        SUNNY     56  42  59 SW6       30.01F
ALLIANCE       CLOUDY    59  43  55 W18       30.04F
SIDNEY         CLOUDY    61  40  45 W12       30.11F
CRESCENT LAKE    N/A     61  41  47 W10         N/A
$$

...OBSERVATIONS IN NORTHERN NEBRASKA AND FAR SOUTHERN SOUTH DAKOTA...

CITY           SKY/WX    TMP DP  RH WIND       PRES   REMARKS
WINNER         FAIR      62  43  49 S8        29.91F
VALENTINE      SUNNY     62  41  46 W12       29.96F
THEDFORD       SUNNY     64  42  44 W12       30.01F
AINSWORTH      SUNNY     63  42  47 W12       29.97F
O`NEILL        CLOUDY    60  44  56 SW9       29.98F
ORD            SUNNY     60  41  49 W10       30.01F
BROKEN BOW     SUNNY     62  42  47 W8        30.02F
VALENTINE NWR    N/A     57  39  51 W9          N/A
HALSEY           N/A     60  41  49 W6          N/A
BUTTE            N/A     52  42  68 SW10        N/A
CHAMBERS         N/A     59  42  53 W7          N/A
EWING            N/A     55  45  68 SW3         N/A
$$

...OBSERVATIONS IN SOUTHWEST NEBRASKA AND FAR NORTHEAST COLORADO...

CITY           SKY/WX    TMP DP  RH WIND       PRES   REMARKS
HOLYOKE        FAIR      63  41  45 W13       30.11F
IMPERIAL       SUNNY     62  42  47 W10       30.10F
OGALLALA       SUNNY     56  43  60 SW7       30.08S
NORTH PLATTE   SUNNY     55  41  59 W5        30.06F
MCCOOK         SUNNY     54  42  64 W9        30.09S
LEXINGTON      SUNNY     57  41  56 W6        30.06F
STAPLETON        N/A     58  44  59 CALM        N/A
GOTHENBURG       N/A     57  40  54 W3          N/A
CALLAWAY         N/A     60  45  57 W8          N/A
$$

...OBSERVATIONS IN CENTRAL LINCOLN COUNTY AREA...

CITY           SKY/WX    TMP DP  RH WIND       PRES   REMARKS
N.P. AIRPORT   SUNNY     55  41  59 W5        30.06F
N.P. DOWNTOWN    N/A     54  44  69 CALM        N/A
N.P. SOUTHEAST   N/A     54  43  66 CALM        N/A
N.P. HILLCREST   N/A     52  43  72 W5          N/A
$$

...SOME OBSERVATIONS FROM AROUND THE REGION...

CITY           SKY/WX    TMP DP  RH WIND       PRES   REMARKS
DENVER         CLOUDY    61  31  32 SW12      30.18F
COPPER MTN     CLOUDY    34  25  69 MISG      30.55S
GRAND JUNCTION CLOUDY    47  35  63 SE9       30.36F
LARAMIE        CLOUDY    53  33  46 W24       30.23F
CHEYENNE       CLOUDY    59  32  36 W22G32    30.17F
CASPER         CLOUDY    52  36  54 SW28G36   30.10F
BISMARCK       CLOUDY    43  36  76 CALM      29.74F
RAPID CITY     SUNNY     64  38  38 SE5       29.91F
PIERRE         CLOUDY    51  40  65 SW12      29.85F
SIOUX FALLS    CLOUDY    44  29  55 SW7       29.96F
OMAHA          MOSUNNY   50  34  54 N6        30.02F
GRAND ISLAND   SUNNY     58  41  53 W7        30.04F
SCOTTSBLUFF    CLOUDY    54  40  59 VRB5      30.07F
KANSAS CITY    MOSUNNY   49  29  46 W5        30.05S
HILL CITY      CLOUDY    62  43  49 W7        30.09F
WICHITA        MOSUNNY   54  31  41 CALM      30.08F
DODGE CITY     SUNNY     62  41  46 NW7       30.11F
OKLAHOMA CITY  MOSUNNY   56  25  30 SW7       30.11F
DALLAS         MOSUNNY   58  27  30 S6        30.16F
AMARILLO       CLOUDY    62  36  37 N10       30.20F
$$




USA.gov is the U.S. government's official web portal to all federal, state and local government web resources and services.